DW5759 Weather Reports


Display with metric or nautical units.
time (UTC)temp
F
wind
direction
speed
MPH
gust
MPH
rain 1hr
in
rain 24hr
in
rain mn
in
humidity
%
barometer
mb
20260831010036 72 284 0.0 1.0 0.00 0.00 0.00 77 1018.3
20260831004537 73 307 0.0 0.0 0.00 0.00 0.00 76 1018.0
20260831003014 72 152 0.0 0.0 0.00 0.00 0.00 78 1017.7
20260831001526 72 296 0.0 0.0 0.00 0.00 0.00 80 1017.2
20260831000024 72 307 0.0 4.0 0.00 0.00 0.00 80 1017.3
20260830234541 72 305 0.0 2.0 0.00 0.00 0.00 83 1017.1
20260830233033 72 275 0.0 2.0 0.00 0.00 0.00 88 1017.2
20260830231518 72 278 0.0 0.0 0.00 0.00 0.00 89 1017.2
20260830230008 72 278 0.0 0.0 0.00 0.00 0.00 88 1017.1
20260830224508 73 278 0.0 0.0 0.00 0.00 0.00 87 1017.2
20260830223007 73 271 0.0 0.0 0.00 0.00 0.00 87 1017.1
20260830221512 73 271 0.0 0.0 0.00 0.00 0.00 86 1017.1
20260830220007 73 271 0.0 0.0 0.00 0.00 0.00 86 1017.0
20260830214507 73 271 0.0 0.0 0.00 0.00 0.00 86 1016.9
20260830213005 73 271 0.0 0.0 0.00 0.00 0.00 85 1016.7
20260830211509 74 271 0.0 0.0 0.00 0.00 0.00 84 1016.8
20260830210041 74 247 0.0 0.0 0.00 0.00 0.00 84 1016.9
20260830204510 74 241 0.0 1.0 0.00 0.00 0.00 83 1017.1
20260830203010 75 299 0.0 0.0 0.00 0.00 0.00 82 1017.1
20260830201504 75 353 0.0 0.0 0.00 0.00 0.00 82 1017.2
20260830200009 76 252 0.0 2.0 0.00 0.00 0.00 80 1017.3
20260830194514 76 107 0.0 2.0 0.00 0.00 0.00 80 1017.3
20260830193018 75 265 0.0 4.0 0.00 0.00 0.00 80 1017.5
20260830191518 75 18 0.0 4.0 0.00 0.00 0.00 80 1017.6
20260830190011 75 279 0.0 2.0 0.00 0.00 0.00 79 1017.8
20260830184514 75 81 0.0 3.0 0.00 0.00 0.00 77 1018.0
20260830183014 76 254 0.0 4.0 0.00 0.00 0.00 76 1018.3
20260830181516 76 256 0.0 2.0 0.00 0.00 0.00 76 1018.3
20260830180024 76 153 0.0 0.0 0.00 0.00 0.00 75 1018.6
20260830174513 76 277 0.0 0.0 0.00 0.00 0.00 74 1018.6
20260830173016 76 180 0.0 3.0 0.00 0.00 0.00 72 1018.8
20260830171515 76 334 0.0 3.0 0.00 0.00 0.00 73 1018.7
20260830170020 75 240 0.0 2.0 0.00 0.00 0.00 75 1018.8
20260830164521 74 98 0.0 1.0 0.00 0.00 0.00 75 1019.0
20260830163015 74 264 0.0 5.0 0.00 0.00 0.00 73 1019.2
20260830161527 74 294 0.0 4.0 0.00 0.00 0.00 75 1019.4
20260830160019 74 230 0.0 0.0 0.00 0.00 0.00 73 1019.5
20260830154523 74 137 0.0 4.0 0.00 0.00 0.00 73 1019.7
20260830153027 73 115 0.0 1.0 0.00 0.00 0.00 74 1019.9
20260830151515 72 84 0.0 0.0 0.00 0.00 0.00 75 1020.1
20260830150020 72 291 0.0 2.0 0.00 0.00 0.00 73 1020.3
20260830144523 72 212 0.0 0.0 0.00 0.00 0.00 74 1020.2
20260830143028 72 156 0.0 0.0 0.00 0.00 0.00 73 1020.3
20260830141519 71 108 0.0 0.0 0.00 0.00 0.00 78 1020.4
20260830140020 69 208 0.0 0.0 0.00 0.00 0.00 80 1020.4
20260830134503 68 41 0.0 0.0 0.00 0.00 0.00 80 1020.4
20260830133004 67 195 0.0 0.0 0.00 0.00 0.00 82 1020.6
20260830131509 65 104 0.0 0.0 0.00 0.00 0.00 86 1020.8
20260830130025 63 236 0.0 0.0 0.00 0.00 0.00 87 1021.0
20260830124525 62 169 0.0 0.0 0.00 0.00 0.00 88 1021.3
20260830123004 61 174 0.0 0.0 0.00 0.00 0.00 88 1021.4
20260830121512 60 167 0.0 0.0 0.00 0.00 0.00 88 1021.6
20260830120015 60 120 0.0 0.0 0.00 0.00 0.00 89 1021.5
20260830114526 59 259 0.0 0.0 0.00 0.00 0.00 89 1021.5
20260830113024 58 316 0.0 0.0 0.00 0.00 0.00 90 1021.7
20260830111513 58 316 0.0 0.0 0.00 0.00 0.00 90 1021.7
20260830110011 58 316 0.0 0.0 0.00 0.00 0.00 90 1021.7
20260830104512 58 316 0.0 0.0 0.00 0.00 0.00 90 1021.5
20260830103025 58 316 0.0 0.0 0.00 0.00 0.00 90 1021.5
20260830101525 58 316 0.0 0.0 0.00 0.00 0.00 90 1021.5
20260830100006 58 316 0.0 0.0 0.00 0.00 0.00 90 1021.6
20260830094510 58 316 0.0 0.0 0.00 0.00 0.00 90 1021.5
20260830093019 58 316 0.0 0.0 0.00 0.00 0.00 90 1021.6
20260830091531 58 316 0.0 0.0 0.00 0.00 0.00 90 1021.7
20260830090028 57 316 0.0 0.0 0.00 0.00 0.00 91 1021.8
20260830084511 57 316 0.0 0.0 0.00 0.00 0.00 90 1021.8
20260830083016 57 316 0.0 0.0 0.00 0.00 0.00 91 1021.9
20260830081520 57 316 0.0 0.0 0.00 0.00 0.00 91 1022.0
20260830080027 57 316 0.0 0.0 0.00 0.00 0.00 91 1022.0
20260830074532 57 316 0.0 0.0 0.00 0.00 0.00 91 1022.0
20260830073012 57 316 0.0 0.0 0.00 0.00 0.00 91 1022.0
20260830071516 57 316 0.0 0.0 0.00 0.00 0.00 91 1021.6
20260830070024 57 316 0.0 0.0 0.00 0.00 0.00 92 1021.7
20260830064525 57 316 0.0 0.0 0.00 0.00 0.00 92 1021.6
20260830063030 57 316 0.0 0.0 0.00 0.00 0.00 92 1021.6
20260830061512 57 316 0.0 0.0 0.00 0.00 0.00 91 1022.1
20260830060020 57 316 0.0 0.0 0.00 0.00 0.00 91 1021.9
20260830054525 57 316 0.0 0.0 0.00 0.00 0.00 91 1022.1
20260830053031 57 316 0.0 0.0 0.00 0.00 0.00 91 1022.0
20260830051536 58 316 0.0 0.0 0.00 0.00 0.00 92 1021.7
20260830050017 58 316 0.0 0.0 0.00 0.00 0.00 92 1021.8
20260830044520 58 316 0.0 0.0 0.00 0.00 0.00 91 1021.9
20260830043029 58 316 0.0 0.0 0.00 0.00 0.00 91 1021.9
20260830041532 58 316 0.0 0.0 0.00 0.00 0.00 91 1021.9
20260830040034 59 316 0.0 0.0 0.00 0.00 0.00 90 1021.8
20260830034517 59 316 0.0 0.0 0.00 0.00 0.00 90 1021.9
20260830033039 59 316 0.0 0.0 0.00 0.00 0.00 89 1021.8
20260830031528 60 316 0.0 0.0 0.00 0.00 0.00 89 1021.8
20260830030034 60 316 0.0 0.0 0.00 0.00 0.00 89 1021.8
20260830024534 60 316 0.0 0.0 0.00 0.00 0.00 88 1021.8
20260830023022 61 316 0.0 0.0 0.00 0.00 0.00 87 1021.9
20260830021532 62 316 0.0 0.0 0.00 0.00 0.00 87 1021.9
20260830020055 62 316 0.0 0.0 0.00 0.00 0.00 86 1021.7
20260830014513 63 316 0.0 0.0 0.00 0.00 0.00 85 1021.7
20260830013015 63 316 0.0 0.0 0.00 0.00 0.00 84 1021.7
20260830011539 64 316 0.0 0.0 0.00 0.00 0.00 83 1021.7